Location: ??????????
(54.4061°N, 22.6114°E)
Time: 07:10:49
(UTC+00:00)

Cosmos 1726 - Pass Details

Date: 23 October 2019
Orbit: 483 x 500 km, 82.5° (Epoch: 13 November)

Event Time Altitude Azimuth Distance (km) Brightness Sun altitude
Rises 16:12:46 0° 188° (S) 2,544 5.9 -9.1°
Reaches altitude 10° 16:14:51 10° 187° (S) 1,667 5.0 -9.4°
Maximum altitude 16:18:30 83° 101° (E) 495 2.0 -10.0°
Drops below altitude 10° 16:22:10 10° 13° (NNE) 1,679 4.6 -10.5°
Sets 16:24:17 0° 13° (NNE) 2,565 5.6 -10.8°
